Location: Bishopstone
(51.0167°N, 1.9000°W)
Time: 09:03:04
(UTC+00:00)

COSMOS 2428 - Pass Details

Date: 16 September 2019
Orbit: 846 x 856 km, 70.9° (Epoch: 13 October)

Event Time Altitude Azimuth Distance (km) Brightness Sun altitude
Rises 19:00:51 0° 330° (NNW) 3,419 6.6 -7.1°
Reaches altitude 10° 19:03:20 10° 332° (NNW) 2,480 5.8 -7.5°
Maximum altitude 19:09:02 75° 58° (ENE) 882 2.7 -8.4°
Drops below altitude 10° 19:14:42 10° 144° (SE) 2,466 4.7 -9.2°
Enters shadow 19:16:11 - 146° (SE) 3,035 5.1 -9.5°
